Погода в Сеще

Россия / Брянская область     53°43′59″N   33°19′52″E
темп.,
°C
ветер,
м/с
пор.,
м/с
влажн.,
%
обл.,
%
осадки,
мм/ч
давл.,
гПа
погр.,
м
15 апреля, чт
чт1500:00+10с3687100 0.0 1015157
03:00+9св4891100 0.2 1014206
06:00+9св4892100 0.1 1013244
09:00+12в51172100 0.1 1013589
12:00+10св498666 0.2 1013424
15:00+15в466192 0.5 10111241
18:00+14вюв467298 2.4 1011614
21:00+11в3687100 4.8 1012155
16 апреля, пт
пт1600:00+10в3688100 0.3 1012124
03:00+8всв499357 0.6 1013207
06:00+8в5119397 0.3 1013337
09:00+10вюв610765 0.3 1015732
12:00+13вюв71058100 0.0 10151777
15:00+14юв6105415 0.1 10151728
18:00+13ююв486076 0.1 1015682
21:00+10юв377199 0.1 1017222
17 апреля, сб
сб1700:00+9вюв247879 0.0 1018129
03:00+7вюв358796 0.0 1019106
06:00+5в238998 0.0 101945
09:00+9в3473100 0.0 1020340
12:00+12ссв5674100 0.1 10191028
15:00+9ссв3796100 6.4 1019553
18:00+9в3692100 4.8 1019323
21:00+8всв2596100 6.5 1020232
18 апреля, вс
вс1800:00+8с2595100 2.4 1020148
03:00+7св51188100 2.6 1020337
06:00+5св5118855 0.0 1020322
09:00+8всв697310 0.0 1020547
12:00+12всв686788 0.0 10211109
15:00+10всв5873100 0.0 10221200
18:00+10в51173100 0.0 10221021
21:00+7в4118248 0.0 1023500
19 апреля, пн
пн1900:00+6всв411825 0.0 1024371
03:00+4св39905 0.0 1024227
06:00+3всв38955 0.0 1025218
09:00+8всв59745 0.0 1024597
12:00+12в6855100 0.1 10241829
15:00+11всв586393 0.1 10241281
18:00+10всв6967100 0.1 1023998
21:00+8всв6127180 0.1 1024649